Wind_Speed
24 27 32 33 34 39 47 48 48 50 46 46 47 43 40 40 33 22 39 38 32 28 29 26 22 25 23 19 15 18 22 26 27 28 28 29 29 30 27 25 26 26 25 25 25 25 20 16 9
25 25 28 32 35 37 42 47 52 52 52 50 51 50 47 44 43 50 33 39 43 33 32 32 28 28 27 27 26 18 20 24 28 29 31 32 31 30 27 28 29 27 27 26 27 24 24 21 17
27 27 27 30 34 38 39 43 48 52 55 54 54 53 53 51 48 51 47 45 44 43 37 35 36 32 30 31 30 29 24 25 26 28 32 34 33 31 30 31 31 29 28 27 26 23 23 23 21
30 29 28 31 33 35 38 43 47 50 54 58 57 58 57 57 54 53 53 51 47 47 45 39 35 37 36 33 32 33 30 29 28 29 29 33 36 35 35 33 32 30 28 27 25 25 24 23 19
35 34 34 33 35 38 39 43 47 49 50 53 60 59 62 60 58 57 57 57 55 53 52 49 46 39 38 40 38 35 33 31 30 29 31 31 34 36 36 35 32 31 29 29 29 27 24 20 22
37 37 37 37 37 39 40 43 44 47 50 51 53 54 59 62 64 63 63 60 60 59 58 55 52 50 45 43 43 42 40 37 36 34 34 36 35 35 36 36 35 32 31 29 29 27 26 25 24
38 38 38 39 40 41 42 43 44 45 46 49 52 51 55 56 62 65 66 66 65 63 63 61 59 57 53 50 47 47 45 43 42 40 35 38 39 38 39 40 40 37 35 33 31 29 29 30 30
36 38 39 39 39 39 43 42 45 44 46 48 48 49 52 59 58 61 65 67 67 67 66 66 65 63 61 58 56 53 49 49 48 47 42 41 40 41 41 42 43 41 39 35 33 33 33 34 34
33 35 37 37 37 37 40 40 44 45 47 49 50 49 52 53 57 61 62 65 69 70 71 69 68 69 67 68 63 61 59 55 54 52 50 48 47 44 41 43 43 42 41 39 40 41 39 40 37
25 27 30 32 32 35 37 39 42 43 44 47 48 50 52 54 55 57 59 63 65 69 71 73 75 73 71 71 72 70 67 63 60 58 56 54 52 50 48 47 45 45 46 46 45 45 43 41 40
26 26 27 27 28 28 29 29 34 34 36 38 40 44 47 50 54 56 58 59 59 62 68 71 73 76 77 78 77 76 76 70 65 64 64 60 58 56 56 54 52 48 48 47 45 45 44 42 45
29 29 28 29 29 29 29 30 31 32 33 34 38 38 41 43 45 49 54 57 61 61 62 64 67 74 76 77 79 79 80 79 75 71 69 68 66 64 60 60 59 57 54 53 52 49 47 46 48
34 35 34 34 35 35 34 33 35 36 35 36 36 37 38 40 42 46 50 53 55 58 61 65 66 68 71 75 78 80 81 82 82 80 78 75 73 71 69 66 65 65 62 59 57 55 53 51 47
41 41 41 41 42 41 40 39 41 40 42 42 42 42 44 45 46 46 46 49 53 57 60 62 64 68 71 72 73 76 80 81 84 82 82 82 81 78 78 74 71 68 67 65 63 61 61 59 55
45 45 46 48 48 48 47 46 46 45 46 46 46 45 45 47 48 49 50 49 50 52 55 58 62 65 69 71 75 75 75 77 79 83 83 83 85 82 80 78 77 74 71 70 67 64 62 60 59
50 50 50 51 52 52 53 52 50 51 52 52 51 49 50 49 48 51 51 51 50 51 53 54 57 59 64 69 72 76 77 78 77 78 80 80 82 84 83 82 81 79 74 72 71 69 66 64 60
55 54 55 54 56 54 56 57 55 55 56 57 56 55 55 53 53 54 56 56 55 53 54 55 56 59 62 66 68 71 74 77 79 80 81 78 78 79 83 83 82 79 78 77 75 72 69 66 64
57 58 58 58 56 58 57 58 58 56 57 59 58 58 58 57 57 57 57 58 58 58 57 57 58 59 61 65 66 68 69 72 75 78 81 81 81 79 80 81 81 81 82 79 77 77 75 71 67
60 60 61 60 61 57 62 60 61 61 59 60 60 60 61 60 60 58 58 59 60 61 61 59 59 58 59 62 64 67 68 70 70 73 76 79 80 82 82 79 81 79 81 83 80 78 77 77 72
60 61 63 64 63 62 62 63 63 64 61 61 61 61 61 61 61 61 60 60 60 62 62 62 60 61 58 59 63 67 68 69 70 70 70 71 76 79 82 82 80 81 80 79 79 77 77 64 59
61 63 63 63 64 63 64 61 62 65 62 64 62 62 61 61 61 61 60 60 61 63 63 63 61 60 59 59 61 64 65 66 68 70 71 72 73 77 78 81 82 81 79 79 76 74 73 68 65
62 64 64 65 65 65 66 60 61 64 63 64 64 64 63 63 62 61 62 62 62 63 63 61 60 60 60 59 59 63 64 64 62 64 67 71 72 72 75 78 80 81 81 79 78 77 80 81 86
62 65 65 66 68 69 66 69 62 67 65 65 65 66 65 66 65 64 64 64 63 64 64 62 61 60 60 61 59 61 62 61 59 58 59 63 70 72 71 75 78 78 80 80 78 78 79 76 82
61 63 65 66 69 67 69 73 63 71 69 67 68 69 67 68 67 66 66 67 65 66 67 65 63 62 62 61 59 59 59 61 59 58 57 56 59 67 71 72 77 78 78 79 79 78 79 78 77
64 66 66 67 71 64 72 73 65 75 71 70 72 70 71 71 70 68 67 66 66 65 65 65 64 64 65 62 58 58 58 59 58 59 59 60 59 59 66 69 72 77 79 81 79 77 79 77 76
72 73 70 73 73 71 78 72 67 74 77 77 80 75 75 75 77 73 73 69 71 67 67 65 65 66 65 61 59 58 59 58 60 60 62 62 61 61 59 65 70 73 77 80 80 78 77 77 74
65 74 81 82 75 82 73 77 76 75 77 80 78 77 76 75 79 76 77 75 72 69 68 68 69 68 64 61 61 61 61 61 62 62 65 61 62 63 60 61 64 69 73 78 79 79 76 76 75
64 70 75 78 78 82 79 82 80 84 86 77 76 80 78 75 78 79 79 75 72 69 70 71 71 70 68 66 65 64 64 66 66 66 65 62 59 61 64 62 59 63 68 73 78 79 79 73 73
69 69 74 80 80 81 80 78 84 90 89 89 80 81 84 83 80 79 79 77 75 74 75 75 73 73 73 71 69 67 67 70 71 69 67 64 61 60 62 62 60 59 61 67 73 77 79 78 73
73 71 75 81 79 85 87 73 78 85 87 93 89 87 87 88 88 85 84 81 78 81 80 78 77 77 77 76 74 73 72 73 75 73 69 65 63 61 60 59 61 60 58 60 67 73 75 78 78
Wind_Direction
229 227 226 225 224 223 222 223 224 226 229 226 225 226 223 225 217 225 228 226 220 237 238 233 235 230 237 241 254 220 233 236 237 233 231 233 234 236 240 246 254 264 276 283 294 302 301 294 307
230 227 227 225 226 226 224 225 227 228 230 231 228 229 228 224 224 225 240 226 234 226 235 238 238 230 240 245 252 251 239 238 242 242 239 236 238 243 245 251 256 263 273 286 297 299 299 293 295
230 228 226 227 227 228 227 228 231 231 231 233 233 231 236 232 225 229 235 231 229 237 235 235 242 241 242 247 256 258 251 246 244 247 242 240 242 243 246 252 259 266 272 284 288 293 297 293 290
232 230 228 227 227 227 227 231 230 231 232 234 235 234 234 238 237 234 234 235 235 237 240 234 237 242 241 245 249 255 255 251 250 247 246 244 244 247 251 256 263 269 274 280 279 286 291 293 300
236 236 234 231 230 229 228 231 232 234 237 235 236 236 237 237 239 240 239 238 236 237 241 242 242 238 241 243 248 249 251 249 249 252 251 247 246 248 254 259 263 265 270 272 277 281 282 282 292
241 240 238 237 236 234 231 233 234 237 237 238 240 239 241 240 240 242 243 241 241 239 241 245 245 247 243 244 244 247 251 252 251 252 255 250 251 250 251 256 260 262 265 266 273 273 276 273 282
239 241 239 239 237 238 236 235 236 236 240 242 242 241 241 242 243 244 243 244 244 241 242 243 247 247 250 243 245 243 246 250 252 250 249 253 251 253 254 256 257 257 259 261 263 268 272 277 276
238 241 240 240 240 240 241 239 241 239 238 239 242 242 243 242 243 243 246 245 245 246 246 244 244 247 249 249 249 244 245 245 247 249 247 249 252 254 255 256 258 257 257 256 260 265 272 275 275
240 242 243 242 241 241 243 243 243 242 241 240 240 241 244 245 245 246 246 246 248 248 247 248 248 247 247 251 249 250 248 247 245 248 250 248 251 249 253 256 258 259 258 259 263 267 270 272 276
234 234 239 239 239 239 241 243 246 246 246 247 245 244 244 245 247 247 248 248 248 248 248 249 250 250 249 248 252 253 253 254 252 250 250 251 249 249 250 252 254 258 260 260 263 267 268 269 271
242 240 239 240 238 236 239 239 244 247 250 251 252 251 252 250 250 250 252 253 253 251 251 251 251 251 251 251 249 249 252 252 254 255 256 255 252 251 248 250 251 256 261 262 261 265 270 271 273
245 242 243 243 243 243 241 244 246 247 248 250 254 255 256 257 256 255 255 255 253 253 254 254 251 252 253 253 253 251 251 252 253 253 253 255 256 254 249 252 255 261 261 260 262 265 267 270 273
243 244 244 242 244 246 247 248 249 252 253 254 256 259 261 262 261 260 258 257 256 256 254 254 253 254 254 254 253 253 253 252 253 254 253 252 252 253 254 251 254 260 262 263 263 267 266 269 271
245 245 245 246 247 248 250 252 253 255 257 259 260 263 265 264 265 266 265 263 262 260 257 256 255 256 257 256 255 256 255 255 255 253 254 253 253 251 251 253 254 255 259 263 263 265 266 267 267
249 248 248 249 250 250 251 252 253 255 258 261 263 264 265 266 267 268 267 266 265 265 263 261 259 258 257 257 258 256 255 256 257 256 255 255 254 253 253 253 254 254 255 259 262 262 263 264 266
250 251 251 251 253 252 253 252 251 254 257 259 260 261 262 263 266 266 265 266 267 269 270 268 266 264 262 261 260 259 258 257 255 254 256 257 256 256 255 253 253 255 255 256 259 260 262 262 263
253 252 253 253 254 252 254 253 252 255 256 259 260 261 261 261 261 261 259 259 260 261 264 266 267 266 266 266 264 263 263 261 258 258 256 253 254 256 256 255 254 253 253 255 256 258 259 260 260
257 257 256 257 254 259 257 258 257 257 260 262 261 262 262 263 263 262 260 260 260 261 262 264 263 263 261 262 263 263 263 264 264 261 260 258 255 252 255 257 254 252 253 252 253 255 257 258 258
256 256 258 258 260 257 262 261 263 260 260 260 262 263 264 263 263 261 260 260 260 261 262 262 262 263 264 264 265 265 265 264 262 262 264 262 259 257 254 252 255 254 251 250 250 253 255 255 254
255 257 258 259 259 259 260 262 264 263 262 263 263 263 263 263 261 262 261 260 260 262 263 263 263 261 261 262 262 262 264 266 268 266 262 263 262 260 258 255 251 251 251 251 249 247 249 257 258
255 256 258 259 260 259 260 261 262 263 264 263 263 263 263 262 262 262 261 261 263 264 265 264 263 262 262 263 263 262 263 264 266 266 266 264 263 261 258 257 254 250 249 249 249 247 244 244 254
261 259 260 260 260 260 260 258 260 261 262 264 263 264 264 264 264 264 266 266 266 267 266 266 265 264 263 263 263 262 262 263 266 268 266 265 264 261 259 256 253 250 247 247 245 245 243 240 248
265 265 264 264 264 261 261 259 258 262 261 260 262 263 263 264 265 265 267 267 266 267 267 267 267 265 265 265 264 262 261 261 264 267 268 267 264 262 261 258 255 250 247 244 244 243 243 246 245
259 262 263 263 263 263 263 262 260 260 261 266 261 262 262 264 265 266 267 267 267 267 268 269 268 266 266 267 266 264 263 262 262 266 265 265 265 264 262 258 255 252 247 245 242 242 242 242 245
261 262 260 262 262 260 261 260 259 263 262 259 262 261 263 263 263 263 265 267 267 267 268 267 267 267 267 267 267 265 265 267 267 268 269 267 264 264 263 261 256 253 250 247 241 240 241 242 243
265 261 261 262 261 260 259 262 257 259 262 259 262 261 261 264 264 265 264 265 265 266 266 265 266 267 269 270 269 267 269 270 271 271 270 270 269 263 263 260 259 254 250 248 245 240 239 240 241
270 271 266 261 260 261 261 263 260 258 257 264 264 262 261 262 265 264 265 266 266 265 265 265 266 268 272 274 270 270 271 272 274 273 276 273 273 269 262 260 258 257 253 248 246 243 238 236 238
272 270 270 271 264 264 260 260 262 263 261 255 261 266 264 262 263 264 265 265 266 266 266 267 268 271 273 273 270 272 274 276 276 279 279 278 277 273 265 261 258 255 255 251 247 245 242 236 233
279 272 271 269 269 266 261 260 261 260 261 260 257 260 262 263 261 262 263 264 266 265 266 266 269 271 273 273 273 275 278 281 282 282 283 284 282 275 267 263 259 255 252 252 250 246 243 241 233
282 275 268 267 266 265 266 259 259 260 259 260 257 254 256 260 261 260 261 262 263 265 266 268 269 270 272 274 275 278 280 282 284 285 285 285 283 279 271 264 260 254 251 250 249 247 244 242 238
Height
10925 10927 10930 10934 10938 10939 10942 10945 10946 10946 10949 10951 10954 10959 10963 10972 10978 10968 10964 10972 10976 10975 10977 10978 10979 10980 10980 10981 10983 10984 10986 10986 10987 10988 10988 10988 10989 10990 10993 10994 10995 10995 10995 10995 10995 10993 10992 10991 10988
10919 10923 10926 10929 10931 10933 10935 10938 10940 10941 10943 10945 10948 10951 10957 10963 10967 10959 10957 10967 10970 10972 10973 10974 10976 10977 10978 10979 10980 10982 10982 10983 10983 10984 10986 10986 10987 10988 10991 10991 10992 10994 10993 10992 10992 10991 10989 10989 10987
10914 10918 10921 10923 10925 10926 10930 10931 10932 10934 10937 10938 10942 10946 10947 10951 10961 10960 10961 10964 10964 10965 10967 10969 10971 10973 10975 10975 10977 10979 10980 10980 10981 10981 10981 10983 10984 10986 10987 10989 10990 10992 10992 10991 10989 10988 10987 10986 10985
10908 10912 10915 10917 10919 10921 10924 10924 10924 10927 10930 10932 10934 10938 10941 10942 10948 10952 10955 10957 10958 10958 10960 10963 10965 10967 10969 10971 10972 10974 10976 10977 10978 10978 10978 10980 10981 10981 10983 10985 10987 10989 10989 10988 10986 10985 10984 10983 10983
10902 10905 10908 10910 10912 10914 10917 10917 10918 10921 10922 10925 10925 10930 10931 10937 10939 10941 10944 10948 10951 10953 10954 10957 10959 10961 10963 10965 10968 10969 10971 10972 10974 10975 10975 10975 10976 10977 10978 10980 10983 10984 10985 10984 10983 10982 10981 10980 10979
10895 10897 10900 10903 10905 10906 10910 10910 10912 10913 10916 10918 10919 10924 10926 10929 10930 10932 10934 10938 10942 10946 10948 10950 10952 10953 10957 10959 10961 10964 10965 10967 10969 10971 10971 10971 10971 10972 10974 10975 10977 10978 10980 10979 10979 10977 10977 10976 10975
10887 10888 10891 10893 10896 10898 10901 10904 10906 10908 10909 10910 10912 10917 10918 10919 10918 10920 10924 10927 10931 10937 10940 10943 10943 10947 10949 10954 10955 10956 10958 10960 10962 10965 10966 10967 10967 10968 10970 10970 10971 10972 10974 10974 10973 10972 10972 10972 10971
10879 10880 10882 10885 10888 10891 10892 10896 10897 10901 10902 10903 10903 10907 10909 10906 10910 10912 10914 10917 10922 10925 10930 10934 10936 10938 10940 10943 10946 10949 10951 10954 10956 10958 10960 10961 10963 10964 10964 10965 10965 10967 10968 10968 10967 10967 10967 10966 10966
10873 10874 10875 10878 10881 10883 10884 10887 10888 10890 10892 10894 10896 10901 10895 10901 10902 10904 10906 10907 10911 10914 10918 10921 10926 10929 10932 10932 10936 10938 10941 10946 10949 10951 10953 10955 10957 10957 10957 10958 10959 10959 10961 10962 10962 10961 10962 10961 10960
10866 10867 10869 10871 10874 10876 10877 10879 10879 10881 10883 10885 10888 10890 10891 10892 10892 10893 10894 10897 10901 10903 10908 10910 10913 10917 10920 10924 10925 10928 10931 10934 10939 10942 10944 10947 10949 10950 10951 10951 10952 10951 10952 10954 10955 10954 10955 10955 10954
10861 10863 10864 10866 10867 10870 10871 10872 10872 10874 10874 10877 10878 10879 10881 10884 10885 10886 10887 10888 10890 10893 10896 10899 10901 10903 10906 10909 10912 10917 10919 10923 10928 10931 10935 10939 10940 10942 10943 10942 10943 10943 10944 10945 10946 10947 10947 10948 10947
10856 10857 10859 10860 10861 10863 10865 10866 10866 10868 10868 10868 10868 10871 10872 10873 10875 10876 10877 10878 10880 10883 10884 10885 10891 10889 10890 10893 10896 10902 10905 10909 10914 10918 10921 10925 10928 10932 10934 10933 10934 10934 10935 10935 10936 10938 10941 10943 10939
10849 10850 10852 10853 10854 10855 10857 10859 10860 10859 10860 10860 10862 10862 10863 10864 10864 10865 10865 10866 10868 10870 10873 10873 10877 10875 10877 10879 10884 10885 10889 10895 10899 10902 10906 10910 10913 10918 10921 10924 10924 10922 10924 10925 10926 10929 10931 10934 10936
10840 10842 10843 10844 10845 10846 10849 10851 10851 10852 10851 10853 10854 10854 10854 10855 10854 10855 10855 10855 10855 10856 10859 10860 10862 10864 10863 10866 10870 10871 10874 10878 10880 10887 10890 10893 10896 10902 10906 10911 10913 10913 10914 10914 10915 10919 10920 10924 10927
10831 10833 10833 10833 10835 10837 10839 10840 10841 10842 10841 10842 10844 10846 10846 10844 10844 10843 10843 10844 10844 10843 10845 10847 10849 10849 10849 10851 10851 10855 10860 10862 10865 10869 10873 10875 10880 10885 10891 10896 10898 10902 10903 10903 10904 10905 10908 10912 10916
10819 10820 10821 10822 10823 10825 10826 10828 10831 10831 10831 10832 10834 10836 10835 10836 10836 10834 10833 10832 10832 10832 10832 10833 10833 10835 10835 10835 10838 10839 10843 10845 10852 10852 10856 10860 10862 10867 10872 10879 10884 10889 10892 10892 10892 10894 10896 10900 10905
10806 10808 10809 10811 10809 10813 10812 10814 10819 10818 10819 10818 10821 10822 10823 10825 10825 10825 10823 10823 10823 10823 10823 10821 10821 10821 10820 10819 10822 10823 10825 10827 10832 10836 10837 10845 10846 10849 10851 10859 10866 10873 10876 10879 10879 10880 10883 10888 10892
10796 10795 10796 10797 10801 10799 10801 10802 10805 10808 10806 10804 10806 10806 10807 10809 10810 10811 10810 10810 10810 10809 10810 10809 10809 10808 10809 10807 10807 10807 10809 10809 10811 10816 10818 10823 10829 10833 10834 10839 10846 10855 10859 10864 10866 10867 10869 10874 10879
10782 10782 10781 10783 10785 10790 10785 10789 10789 10792 10794 10791 10791 10792 10793 10795 10795 10795 10796 10796 10795 10795 10796 10797 10796 10795 10795 10794 10793 10792 10793 10793 10795 10797 10799 10800 10807 10812 10817 10824 10826 10836 10840 10847 10852 10855 10856 10858 10866
10765 10766 10766 10768 10771 10773 10772 10774 10775 10773 10778 10777 10777 10778 10779 10779 10779 10780 10781 10781 10781 10780 10780 10781 10782 10782 10783 10781 10780 10778 10778 10779 10778 10781 10782 10783 10785 10789 10794 10804 10808 10814 10822 10828 10835 10843 10844 10847 10852
10751 10750 10751 10752 10753 10758 10755 10761 10758 10755 10761 10758 10760 10761 10764 10764 10765 10765 10765 10766 10765 10764 10764 10765 10767 10767 10768 10767 10765 10764 10764 10764 10762 10763 10765 10766 10767 10768 10773 10779 10787 10793 10803 10810 10817 10826 10830 10840 10836
10735 10734 10736 10735 10737 10740 10737 10748 10743 10739 10742 10743 10743 10744 10745 10747 10748 10748 10749 10751 10750 10748 10748 10749 10751 10752 10751 10752 10752 10750 10750 10749 10749 10746 10748 10747 10747 10750 10752 10756 10762 10773 10780 10790 10799 10807 10812 10822 10821
10719 10719 10720 10720 10720 10720 10725 10723 10729 10721 10724 10726 10728 10727 10728 10728 10731 10733 10732 10733 10734 10734 10733 10735 10735 10736 10735 10735 10737 10735 10735 10734 10734 10733 10730 10730 10729 10730 10733 10736 10740 10749 10758 10768 10779 10788 10793 10802 10808
10703 10702 10702 10702 10701 10707 10707 10701 10720 10702 10707 10712 10709 10709 10711 10711 10713 10715 10716 10716 10718 10717 10716 10718 10719 10719 10719 10719 10721 10720 10719 10718 10719 10717 10716 10714 10712 10711 10713 10717 10719 10726 10735 10745 10758 10768 10775 10783 10791
10687 10685 10687 10686 10681 10694 10685 10685 10701 10685 10693 10693 10690 10695 10694 10694 10695 10699 10698 10699 10700 10702 10702 10702 10702 10702 10702 10704 10705 10704 10702 10701 10702 10701 10698 10697 10699 10697 10696 10695 10701 10704 10712 10721 10735 10748 10756 10764 10774
10665 10663 10669 10663 10664 10669 10661 10672 10680 10669 10669 10671 10667 10678 10679 10677 10674 10681 10680 10685 10681 10686 10685 10686 10684 10683 10685 10688 10688 10687 10685 10686 10684 10685 10682 10680 10681 10683 10683 10680 10680 10685 10691 10699 10710 10724 10733 10745 10755
10652 10648 10640 10639 10652 10641 10657 10652 10654 10653 10651 10649 10650 10653 10659 10662 10655 10662 10661 10664 10665 10669 10668 10667 10666 10666 10669 10671 10670 10670 10669 10668 10667 10669 10660 10665 10663 10664 10666 10665 10665 10668 10673 10679 10688 10699 10712 10723 10736
10630 10626 10621 10620 10624 10622 10640 10632 10637 10627 10623 10638 10638 10630 10634 10640 10640 10641 10641 10646 10648 10650 10649 10648 10648 10649 10652 10653 10652 10653 10653 10650 10651 10649 10645 10645 10646 10643 10645 10648 10651 10653 10655 10659 10667 10678 10689 10703 10715
10608 10608 10601 10591 10595 10596 10604 10614 10614 10607 10607 10607 10620 10618 10610 10613 10619 10620 10622 10626 10629 10630 10629 10630 10632 10631 10631 10633 10633 10635 10635 10631 10630 10629 10628 10626 10626 10625 10625 10629 10634 10637 10639 10641 10648 10658 10669 10683 10696
10582 10582 10574 10566 10577 10570 10570 10599 10589 10582 10581 10576 10593 10593 10592 10590 10592 10599 10601 10606 10610 10607 10608 10611 10613 10612 10611 10613 10614 10616 10617 10615 10611 10609 10610 10609 10606 10606 10607 10610 10612 10617 10623 10626 10630 10637 10648 10661 10673